GALAXY 16 (G-16)

Last updated on Sun Oct 06 2024 00:02:38 GMT+0000 (Coordinated Universal Time)

1 29236U 06023A 24279.52125817 -.00000116 00000+0 00000+0 0 9995 2 29236 0.0186 222.2945 0002585 332.9857 268.0748 1.00272658 66752
UTC large
Height (km)
Speed (km/s)
/
Latitude / Longitude
Inclination (degrees)
Orbital Period (minutes)
Azimuth
Elevation
Range (km)
Doppler Factor

Next 0 passes for location: London (51.5072 / 0.1276)

Sorry there are no passes over London.